FW3192 Weather Reports


Display with metric or nautical units.
time (UTC)temp
F
wind
direction
speed
MPH
gust
MPH
rain 1hr
in
rain 24hr
in
rain mn
in
humidity
%
barometer
mb
20260507231547 59 218 11.0 16.0 0.00 0.00 0.00 74 1030.1
20260507230042 59 207 11.0 18.0 0.00 0.00 0.00 73 1030.0
20260507224539 59 223 12.0 17.0 0.00 0.00 0.00 74 1029.9
20260507223038 59 213 12.0 19.0 0.00 0.00 0.00 75 1029.8
20260507221535 59 223 12.0 19.0 0.00 0.00 0.00 74 1029.5
20260507220035 59 213 11.0 15.0 0.00 0.00 0.00 73 1029.3
20260507214531 59 223 9.0 14.0 0.00 0.00 0.00 74 1029.2
20260507213014 59 239 8.0 15.0 0.00 0.00 0.00 73 1029.0
20260507211514 59 230 8.0 12.0 0.00 0.00 0.00 74 1029.0
20260507210031 59 235 10.0 14.0 0.00 0.00 0.00 74 1029.0
20260507204513 59 211 7.0 13.0 0.00 0.00 0.00 73 1028.9
20260507203012 58 197 8.0 14.0 0.00 0.00 0.00 71 1028.9
20260507201511 58 212 13.0 17.0 0.00 0.00 0.00 73 1028.9
20260507200013 58 210 10.0 19.0 0.00 0.00 0.00 74 1028.9
20260507194511 59 249 8.0 14.0 0.00 0.00 0.00 74 1028.9
20260507193006 59 234 10.0 16.0 0.00 0.00 0.00 74 1028.9
20260507191506 59 211 10.0 15.0 0.00 0.00 0.00 74 1028.8
20260507190006 59 224 9.0 13.0 0.00 0.00 0.00 73 1028.7
20260507184514 58 217 10.0 16.0 0.00 0.00 0.00 72 1028.7
20260507183004 58 222 9.0 16.0 0.00 0.00 0.00 71 1028.7
20260507181503 58 210 10.0 17.0 0.00 0.00 0.00 72 1028.7
20260507180054 59 212 14.0 18.0 0.00 0.00 0.00 72 1028.8
20260507174551 59 213 13.0 18.0 0.00 0.00 0.00 74 1028.8
20260507173049 59 213 13.0 18.0 0.00 0.00 0.00 73 1028.8
20260507171551 59 252 13.0 18.0 0.00 0.00 0.00 74 1028.8
20260507170048 59 190 11.0 16.0 0.00 0.00 0.00 70 1028.8
20260507164547 59 200 11.0 17.0 0.00 0.00 0.00 71 1028.9
20260507163046 59 237 10.0 18.0 0.00 0.00 0.00 72 1029.0
20260507161548 59 210 9.0 18.0 0.00 0.00 0.00 72 1029.0
20260507160030 59 237 10.0 15.0 0.00 0.00 0.00 71 1029.0
20260507154534 58 215 13.0 17.0 0.00 0.00 0.00 73 1029.2
20260507153039 59 209 14.0 17.0 0.00 0.00 0.00 71 1029.3
20260507151529 59 202 13.0 20.0 0.00 0.00 0.00 71 1029.2
20260507150030 59 206 12.0 17.0 0.00 0.00 0.00 70 1029.3
20260507144527 58 210 11.0 17.0 0.00 0.00 0.00 68 1029.3
20260507143027 58 213 13.0 16.0 0.00 0.00 0.00 67 1029.3
20260507141525 58 225 10.0 16.0 0.00 0.00 0.00 67 1029.3
20260507140011 58 235 7.0 15.0 0.00 0.00 0.00 68 1029.3
20260507134507 58 228 12.0 17.0 0.00 0.00 0.00 67 1029.4
20260507133051 58 208 16.0 20.0 0.00 0.00 0.00 68 1029.4
20260507131609 58 220 11.0 16.0 0.00 0.00 0.00 69 1029.4
20260507130039 58 207 14.0 17.0 0.00 0.00 0.00 69 1029.5
20260507124533 57 211 11.0 19.0 0.00 0.00 0.00 72 1029.8
20260507123032 58 219 14.0 21.0 0.00 0.00 0.00 73 1029.9
20260507121531 58 223 14.0 19.0 0.00 0.00 0.00 71 1029.9
20260507120030 57 225 8.0 16.0 0.00 0.00 0.00 75 1029.8
20260507114529 58 207 16.0 21.0 0.00 0.00 0.00 72 1029.8
20260507113028 58 220 16.0 20.0 0.00 0.00 0.00 71 1029.6
20260507111529 58 192 14.0 19.0 0.00 0.00 0.00 66 1029.6
20260507110015 58 205 9.0 14.0 0.00 0.00 0.00 67 1029.6
20260507104515 58 211 7.0 13.0 0.00 0.00 0.00 68 1029.7
20260507103026 58 187 12.0 21.0 0.00 0.00 0.00 69 1029.8
20260507101514 58 193 12.0 18.0 0.00 0.00 0.00 65 1029.8
20260507100013 58 210 10.0 15.0 0.00 0.00 0.00 63 1029.7
20260507094512 58 217 10.0 17.0 0.00 0.00 0.00 65 1029.6
20260507093011 58 211 13.0 17.0 0.00 0.00 0.00 63 1029.5
20260507091514 58 188 12.0 18.0 0.00 0.00 0.00 66 1029.5
20260507090056 58 206 11.0 19.0 0.00 0.00 0.00 68 1029.4
20260507084556 58 217 16.0 20.0 0.00 0.00 0.00 68 1029.2
20260507083055 58 218 12.0 16.0 0.00 0.00 0.00 68 1029.0
20260507081554 58 194 12.0 16.0 0.00 0.00 0.00 67 1029.0
20260507080107 58 237 11.0 16.0 0.00 0.00 0.00 68 1029.0
20260507074553 59 205 10.0 17.0 0.00 0.00 0.00 66 1029.0
20260507073052 59 211 10.0 15.0 0.00 0.00 0.00 63 1029.0
20260507071608 59 216 10.0 14.0 0.00 0.00 0.00 58 1029.0
20260507070039 59 216 8.0 12.0 0.00 0.00 0.00 61 1029.0
20260507064536 59 208 10.0 15.0 0.00 0.00 0.00 60 1028.9
20260507063042 60 212 9.0 14.0 0.00 0.00 0.00 58 1028.9
20260507061535 60 232 13.0 17.0 0.00 0.00 0.00 56 1028.8
20260507060037 60 211 10.0 18.0 0.00 0.00 0.00 57 1028.9
20260507054532 59 208 13.0 16.0 0.00 0.00 0.00 58 1029.0
20260507053054 59 192 9.0 18.0 0.00 0.00 0.00 60 1029.0
20260507051540 60 212 11.0 19.0 0.00 0.00 0.00 57 1029.0
20260507050020 60 228 13.0 17.0 0.00 0.00 0.00 56 1029.0
20260507044517 60 247 14.0 19.0 0.00 0.00 0.00 57 1029.0
20260507043016 59 212 13.0 18.0 0.00 0.00 0.00 59 1029.0
20260507041515 59 230 12.0 17.0 0.00 0.00 0.00 61 1029.1
20260507040015 60 220 14.0 19.0 0.00 0.00 0.00 59 1029.2
20260507034527 60 212 11.0 16.0 0.00 0.00 0.00 56 1029.2
20260507033016 60 248 12.0 17.0 0.00 0.00 0.00 63 1029.3
20260507031510 58 213 11.0 16.0 0.00 0.00 0.00 62 1029.3
20260507030005 57 196 11.0 14.0 0.00 0.00 0.00 65 1029.5
20260507024505 58 228 13.0 17.0 0.00 0.00 0.00 68 1029.7
20260507023004 58 212 9.0 14.0 0.00 0.00 0.00 62 1029.8
20260507021501 58 194 12.0 16.0 0.00 0.00 0.00 60 1029.9
20260507020100 59 196 13.0 17.0 0.00 0.00 0.00 58 1030.0
20260507014614 59 188 12.0 18.0 0.00 0.00 0.00 55 1030.0
20260507013043 59 185 11.0 18.0 0.00 0.00 0.00 51 1030.0
20260507011540 59 200 16.0 20.0 0.00 0.00 0.00 54 1029.8
20260507010036 59 150 13.0 17.0 0.00 0.00 0.00 55 1029.9
20260507004537 58 194 11.0 17.0 0.00 0.00 0.00 59 1029.7
20260507003028 58 165 14.0 17.0 0.00 0.00 0.00 59 1029.7
20260507001526 58 159 14.0 19.0 0.00 0.00 0.00 63 1029.8
20260507000024 57 146 13.0 18.0 0.00 0.00 0.00 63 1029.7
20260506234520 57 135 8.0 14.0 0.00 0.00 0.00 66 1029.6
20260506233017 56 149 7.0 13.0 0.00 0.00 0.00 69 1029.5